Regional Weather Roundup
Issued by NWS

Home | Current Version | Previous Version | Text Only | Print | Product List | Glossary Off
Versions: 1 2 3 4 5 6 7 8 9 10 11 12 13 14 15 16 17 18 19 20 21 22 23 24 25 26 27 28 29 30 31 32 33 34 35 36 37 38 39 40 41 42 43 44 45 46 47 48 49 50

000
ASUS45 KCYS 112110
RWRWY

WYOMING REGIONAL WEATHER ROUNDUP
NATIONAL WEATHER SERVICE CHEYENNE WY
200 PM MST THU FEB 11 2016

NOTE:  "FAIR" INDICATES FEW OR NO CLOUDS BELOW 12,000 FEET
WITH NO SIGNIFICANT WEATHER AND/OR OBSTRUCTIONS TO VISIBILITY.

WYZ001-112200-
YELLOWSTONE NATIONAL PARK

CITY           SKY/WX    TMP DP  RH WIND       PRES   REMARKS
LK YELLOWSTONE   N/A     42  18  37 VRB7      30.33F
W YELLOWSTONE  NOT AVBL

$$
WYZ002>013-054>058-071-098>099-112200-
NORTHERN WYOMING

CITY           SKY/WX    TMP DP  RH WIND       PRES   REMARKS
JACKSON        MOSUNNY   30  25  80 CALM        N/A
CODY           FAIR      55  16  21 N22G28    30.16S
GREYBULL       FAIR      60  20  21 NW25      30.14F
WORLAND        FAIR      49  26  41 W7        30.17F
SHERIDAN       FAIR      56  24  29 N23G29    30.13F
BUFFALO        FAIR      52  24  33 N25G41    30.13F
GILLETTE       FAIR      52  25  35 NW25G36   30.10S
HULETT         FAIR      52  27  37 NW22G32   30.09R
NEWCASTLE      FAIR      52  21  30 NW24G37   30.07F

$$
WYZ014>020-022>026-101>103-112200-
CENTRAL WYOMING

CITY           SKY/WX    TMP DP  RH WIND       PRES   REMARKS
BIG PINEY      FAIR      44  22  41 S3        30.32F
PINEDALE         N/A     41  23  48 E3        30.33F
DUBOIS         FAIR      48  14  25 NW24G36   30.23R
LANDER         FAIR      51  24  34 CALM      30.17S
RIVERTON       FAIR      45  25  45 E7        30.18F
CASPER         FAIR      44  25  47 SW15      30.16F
DOUGLAS        FAIR      51  26  37 NW14      30.17

$$
WYZ021-027>030-104>119-112200-
SOUTHERN WYOMING

CITY           SKY/WX    TMP DP  RH WIND       PRES   REMARKS
EVANSTON       FAIR      40  21  46 SW9       30.38F WCI  34
KEMMERER       FAIR      41  23  48 W10       30.37F
FORT BRIDGER   PTCLDY    45  23  42 W21       30.39F
ROCK SPRINGS   FAIR      42  22  44 SW22      30.33F
DIXON          FAIR      38  21  50 N5        30.36F WCI  35
RAWLINS        FAIR      38  23  55 W17G24    30.27R WCI  28
SARATOGA       FAIR      41  23  48 W23       30.26F
LARAMIE        PTSUNNY   50  25  37 W16       30.19F
CHEYENNE       FAIR      54  23  30 NW20G39   30.11F
TORRINGTON     FAIR      57  24  28 NW24G33   30.10S
PINE BLUFFS    FAIR      52  23  32 NW24G31   30.15R

$$



USA.gov is the U.S. government's official web portal to all federal, state and local government web resources and services.